Hourly Data Report for October 03, 2017

All times are specified in Local Standard Time (LST). Add 1 hour to adjust for Daylight Saving Time where and when it is observed.

PEMBERTON AIRPORT CS
BRITISH COLUMBIA

50°18'20.326" N
122°44'02.720" W
204.30 m
1086082
71777
WGP

Download Data

Hourly Data (October 2017)
Hourly Data Report for October 3, 2017
Temp Definition
°C
Dew Point Temp Definition
°C
Rel Hum Definition
%
Wind Dir Definition
10's deg

Wind Spd Definition
km/h
Visibility Definition
km
Stn Press Definition
kPa
Hmdx Definition


Wind Chill Definition


Weather Definition


TIME
00:00 5.9 1.7 75 LegendMM LegendMM   100.39     LegendNANA
01:00 4.7 1.9 82 LegendMM LegendMM   100.41     LegendNANA
02:00 4.5 1.6 82 LegendMM LegendMM   100.47     LegendNANA
03:00 4.3 1.4 81 LegendMM LegendMM   100.48     LegendNANA
04:00 3.7 1.1 83 LegendMM LegendMM   100.45     LegendNANA
05:00 2.6 1.2 90 LegendMM LegendMM   100.47     LegendNANA
06:00 2.0 1.1 93 LegendMM LegendMM   100.46     LegendNANA
07:00 1.8 1.0 94 LegendMM LegendMM   100.48     LegendNANA
08:00 3.8 2.1 89 LegendMM LegendMM   100.51     LegendNANA
09:00 8.0 2.2 67 LegendMM LegendMM   100.54     LegendNANA
10:00 11.8 1.4 49 LegendMM LegendMM   100.45     LegendNANA
11:00 14.5 -1.2 34 LegendMM LegendMM   100.37     LegendNANA
12:00 15.3 -1.6 31 LegendMM LegendMM   100.26     LegendNANA
13:00 17.6 -2.0 26 LegendMM LegendMM   100.16     LegendNANA
14:00 18.8 -1.7 25 LegendMM LegendMM   100.07     LegendNANA
15:00 19.0 -1.9 24 LegendMM LegendMM   100.00     LegendNANA
16:00 19.3 1.7 31 LegendMM LegendMM   99.94     LegendNANA
17:00 13.2 6.7 65 LegendMM LegendMM   99.95     LegendNANA
18:00 8.8 5.4 80 LegendMM LegendMM   99.97     LegendNANA
19:00 6.8 4.2 83 LegendMM LegendMM   100.04     LegendNANA
20:00 5.1 3.5 89 LegendMM LegendMM   100.06     LegendNANA
21:00 4.2 3.2 94 LegendMM LegendMM   100.10     LegendNANA
22:00 3.5 2.6 94 LegendMM LegendMM   100.12     LegendNANA
23:00 2.7 2.1 96 LegendMM LegendMM   100.14     LegendNANA

Notes on Data Quality.

Legend

  • E = Estimated
  • M = Missing
  • NA = Not Available
  • ‡ = Partner data that is not subject to review by the National Climate Archives
Date modified: